SDM2906 UWKD-URWW

Flight info

Callsign SDM2906
Flight time 1h 30m
Altitude 38000
Route SONUM1G SONUM T789 DAFOS P135 UROBO R807 RODUN RODUN1G
Aircraft A319/M-SDE3FGHIRWY/LB1

Departure

Time 2026-05-01 11:43
Airport Kazan International Airport (UWKD)

Arrival

Time 2026-05-01 13:13
Airport Volgograd International Airport (URWW)
Time Latitude Longitude Altitude Speed Heading
2026-05-01 11:23 55.60720 49.29966 416 ft 0 kts 35°
2026-05-01 11:32 55.60712 49.29956 407 ft 3 kts 33°
2026-05-01 11:33 55.60695 49.29938 405 ft 3 kts 25°
2026-05-01 11:33 55.60676 49.29924 409 ft 3 kts 13°
2026-05-01 11:33 55.60657 49.29919 407 ft 3 kts 352°
2026-05-01 11:33 55.60640 49.29929 408 ft 2 kts 312°
2026-05-01 11:34 55.60637 49.29936 407 ft 0 kts 303°
2026-05-01 11:35 55.60642 49.29922 416 ft 3 kts 303°
2026-05-01 11:36 55.60659 49.29877 416 ft 6 kts 304°
2026-05-01 11:36 55.60688 49.29802 415 ft 9 kts 304°
2026-05-01 11:36 55.60728 49.29698 413 ft 11 kts 304°
2026-05-01 11:36 55.60775 49.29579 415 ft 12 kts 304°
2026-05-01 11:37 55.60817 49.29461 416 ft 10 kts 286°
2026-05-01 11:37 55.60770 49.29374 416 ft 12 kts 213°
2026-05-01 11:37 55.60692 49.29277 413 ft 15 kts 217°
2026-05-01 11:37 55.60597 49.29152 416 ft 19 kts 230°
2026-05-01 11:38 55.60580 49.28919 416 ft 19 kts 274°
2026-05-01 11:38 55.60592 49.28659 416 ft 22 kts 276°
2026-05-01 11:38 55.60673 49.28404 416 ft 26 kts 304°
2026-05-01 11:38 55.60774 49.28145 416 ft 25 kts 304°
2026-05-01 11:39 55.60883 49.27866 414 ft 30 kts 304°
2026-05-01 11:39 55.61010 49.27539 413 ft 35 kts 304°
2026-05-01 11:39 55.61135 49.27215 415 ft 27 kts 304°
2026-05-01 11:39 55.61252 49.26914 409 ft 32 kts 304°
2026-05-01 11:40 55.61378 49.26587 416 ft 30 kts 304°
2026-05-01 11:40 55.61503 49.26269 413 ft 30 kts 305°
2026-05-01 11:40 55.61629 49.25941 408 ft 33 kts 304°
2026-05-01 11:40 55.61759 49.25606 413 ft 35 kts 304°
2026-05-01 11:41 55.61850 49.25370 413 ft 12 kts 300°
2026-05-01 11:41 55.61812 49.25242 414 ft 16 kts 213°
2026-05-01 11:41 55.61708 49.25130 409 ft 16 kts 195°
2026-05-01 11:41 55.61672 49.25174 409 ft 0 kts 122°
2026-05-01 11:42 55.61624 49.25298 411 ft 44 kts 124°
2026-05-01 11:42 55.61302 49.26127 410 ft 115 kts 124°
2026-05-01 11:42 55.60742 49.27571 447 ft 164 kts 123°
2026-05-01 11:42 55.60080 49.29301 956 ft 174 kts 124°
2026-05-01 11:43 55.59383 49.31097 1680 ft 178 kts 122°
2026-05-01 11:43 55.58655 49.32970 2140 ft 198 kts 122°
2026-05-01 11:43 55.57825 49.35107 2577 ft 223 kts 122°
2026-05-01 11:44 55.56029 49.39708 4466 ft 231 kts 123°
2026-05-01 11:44 55.55048 49.41989 5328 ft 242 kts 134°
2026-05-01 11:44 55.53466 49.43314 5804 ft 267 kts 174°
2026-05-01 11:44 55.51627 49.42684 6600 ft 278 kts 210°
2026-05-01 11:45 55.50270 49.40298 7492 ft 280 kts 241°
2026-05-01 11:45 55.49339 49.37262 8467 ft 284 kts 236°
2026-05-01 11:45 55.47898 49.34843 9411 ft 287 kts 213°
2026-05-01 11:45 55.46136 49.33158 10339 ft 292 kts 204°
2026-05-01 11:46 55.44206 49.31751 10687 ft 315 kts 200°
2026-05-01 11:46 55.42108 49.30373 11303 ft 326 kts 199°
2026-05-01 11:46 55.39965 49.28950 12117 ft 331 kts 200°
2026-05-01 11:46 55.37810 49.27446 12970 ft 336 kts 201°
2026-05-01 11:47 55.35643 49.25851 13822 ft 340 kts 202°
2026-05-01 11:47 55.33466 49.24191 14565 ft 343 kts 203°
2026-05-01 11:47 55.31267 49.22489 15319 ft 347 kts 203°
2026-05-01 11:47 55.29046 49.20758 16078 ft 351 kts 203°
2026-05-01 11:48 55.26800 49.19002 16846 ft 355 kts 203°
2026-05-01 11:48 55.24533 49.17233 17595 ft 359 kts 202°
2026-05-01 11:48 55.22229 49.15451 18301 ft 364 kts 202°
2026-05-01 11:48 55.19905 49.13664 18953 ft 367 kts 202°
2026-05-01 11:49 55.17557 49.11857 19626 ft 369 kts 203°
2026-05-01 11:49 55.15280 49.09751 20288 ft 372 kts 208°
2026-05-01 11:49 55.13030 49.07480 20948 ft 374 kts 209°
2026-05-01 11:49 55.10766 49.05205 21614 ft 376 kts 209°
2026-05-01 11:50 55.08489 49.02923 22278 ft 379 kts 209°
2026-05-01 11:50 55.06194 49.00627 22995 ft 381 kts 209°
2026-05-01 11:50 55.03887 48.98319 23640 ft 384 kts 209°
2026-05-01 11:50 55.01568 48.95999 24185 ft 385 kts 209°
2026-05-01 11:51 54.99231 48.93663 24708 ft 387 kts 211°
2026-05-01 11:51 54.96904 48.91340 25149 ft 391 kts 211°
2026-05-01 11:51 54.94512 48.88958 25600 ft 394 kts 211°
2026-05-01 11:51 54.92130 48.86590 26043 ft 398 kts 211°
2026-05-01 11:52 54.89699 48.84179 26483 ft 401 kts 211°
2026-05-01 11:52 54.87277 48.81784 26913 ft 404 kts 211°
2026-05-01 11:52 54.84850 48.79386 27336 ft 407 kts 211°
2026-05-01 11:52 54.82362 48.76928 27762 ft 410 kts 211°
2026-05-01 11:53 54.79871 48.74471 28183 ft 412 kts 211°
2026-05-01 11:53 54.77378 48.72020 28596 ft 415 kts 211°
2026-05-01 11:53 54.74843 48.69535 29006 ft 418 kts 211°
2026-05-01 11:53 54.72308 48.67048 29404 ft 421 kts 211°
2026-05-01 11:54 54.69744 48.64533 29807 ft 424 kts 211°
2026-05-01 11:54 54.67203 48.62047 30170 ft 426 kts 211°
2026-05-01 11:54 54.64618 48.59523 30471 ft 429 kts 211°
2026-05-01 11:54 54.61974 48.56951 30767 ft 431 kts 211°
2026-05-01 11:55 54.59368 48.54416 31048 ft 433 kts 211°
2026-05-01 11:55 54.56734 48.51852 31319 ft 436 kts 211°
2026-05-01 11:55 54.54112 48.49302 31589 ft 437 kts 211°
2026-05-01 11:55 54.51458 48.46729 31995 ft 436 kts 211°
2026-05-01 11:56 54.48819 48.44182 32422 ft 434 kts 211°
2026-05-01 11:56 54.47035 48.42465 32690 ft 434 kts 211°
2026-05-01 11:56 54.44422 48.39946 33074 ft 433 kts 211°
2026-05-01 11:56 54.41781 48.37396 33455 ft 433 kts 211°
2026-05-01 11:57 54.39160 48.34867 33832 ft 432 kts 211°
2026-05-01 11:57 54.36560 48.32363 34183 ft 432 kts 211°
2026-05-01 11:57 54.33916 48.29826 34486 ft 432 kts 211°
2026-05-01 11:57 54.31318 48.27339 34773 ft 432 kts 211°
2026-05-01 11:58 54.28686 48.24829 35040 ft 432 kts 211°
2026-05-01 11:58 54.26028 48.22355 35306 ft 432 kts 207°
2026-05-01 11:58 54.20557 48.18153 35800 ft 433 kts 206°
2026-05-01 11:59 54.17816 48.16059 36047 ft 433 kts 206°
2026-05-01 11:59 54.15060 48.13957 36287 ft 433 kts 206°
2026-05-01 11:59 54.12310 48.11863 36520 ft 433 kts 206°
2026-05-01 12:00 54.06779 48.07652 36952 ft 434 kts 206°
2026-05-01 12:00 54.04036 48.05571 37168 ft 434 kts 206°
2026-05-01 12:00 53.98544 48.01428 37607 ft 433 kts 206°
2026-05-01 12:01 53.95778 47.99346 37840 ft 432 kts 206°
2026-05-01 12:01 53.93043 47.97287 38019 ft 432 kts 206°
2026-05-01 12:01 53.90265 47.95195 38082 ft 432 kts 206°
2026-05-01 12:02 53.84791 47.91086 38081 ft 430 kts 206°
2026-05-01 12:02 53.79074 47.88045 38081 ft 433 kts 196°
2026-05-01 12:03 53.73236 47.85687 38081 ft 433 kts 196°
2026-05-01 12:03 53.67465 47.82668 38077 ft 431 kts 204°
2026-05-01 12:04 53.61921 47.78983 38078 ft 431 kts 204°
2026-05-01 12:04 53.56342 47.75292 38085 ft 431 kts 204°
2026-05-01 12:05 53.50764 47.71604 38083 ft 431 kts 204°
2026-05-01 12:05 53.42722 47.65034 38090 ft 427 kts 211°
2026-05-01 12:06 53.37507 47.60334 38090 ft 427 kts 210°
2026-05-01 12:06 53.32243 47.55602 38088 ft 427 kts 210°
2026-05-01 12:07 53.27048 47.50938 38084 ft 427 kts 210°
2026-05-01 12:07 53.21794 47.46243 38082 ft 427 kts 210°
2026-05-01 12:08 53.16560 47.41583 38080 ft 426 kts 210°
2026-05-01 12:08 53.11331 47.36921 38081 ft 427 kts 210°
2026-05-01 12:09 53.06105 47.32275 38084 ft 426 kts 210°
2026-05-01 12:09 53.00841 47.27619 38063 ft 426 kts 210°
2026-05-01 12:10 52.93024 47.20742 38092 ft 426 kts 210°
2026-05-01 12:11 52.85179 47.13847 38095 ft 425 kts 210°
2026-05-01 12:11 52.79927 47.09250 38095 ft 425 kts 210°
2026-05-01 12:12 52.74708 47.04695 38098 ft 425 kts 210°
2026-05-01 12:12 52.69452 47.00119 38099 ft 425 kts 210°
2026-05-01 12:13 52.64212 46.95586 38102 ft 425 kts 210°
2026-05-01 12:13 52.58982 46.91054 38106 ft 425 kts 210°
2026-05-01 12:14 52.53771 46.86560 38111 ft 425 kts 210°
2026-05-01 12:14 52.48537 46.82062 38115 ft 425 kts 210°
2026-05-01 12:15 52.43284 46.77548 38098 ft 424 kts 210°
2026-05-01 12:15 52.38061 46.73081 38112 ft 423 kts 210°
2026-05-01 12:16 52.32860 46.68641 38117 ft 423 kts 210°
2026-05-01 12:16 52.27619 46.64175 38117 ft 423 kts 210°
2026-05-01 12:17 52.22406 46.59755 38118 ft 423 kts 210°
2026-05-01 12:17 52.17180 46.55330 38116 ft 423 kts 210°
2026-05-01 12:18 52.11976 46.50926 38119 ft 423 kts 210°
2026-05-01 12:18 52.06766 46.46528 38122 ft 423 kts 210°
2026-05-01 12:19 52.01545 46.42143 38126 ft 423 kts 210°
2026-05-01 12:19 51.96321 46.37769 38127 ft 423 kts 210°
2026-05-01 12:20 51.91098 46.33401 38115 ft 422 kts 210°
2026-05-01 12:20 51.85880 46.29061 38126 ft 421 kts 210°
2026-05-01 12:21 51.80667 46.24745 38131 ft 420 kts 210°
2026-05-01 12:21 51.75470 46.20424 38128 ft 419 kts 210°
2026-05-01 12:22 51.70277 46.16119 38119 ft 419 kts 210°
2026-05-01 12:22 51.65088 46.11837 38119 ft 419 kts 210°
2026-05-01 12:23 51.59893 46.07586 38120 ft 419 kts 210°
2026-05-01 12:23 51.54696 46.03344 38121 ft 419 kts 209°
2026-05-01 12:24 51.49436 45.99290 38126 ft 419 kts 208°
2026-05-01 12:24 51.44144 45.95330 38119 ft 419 kts 208°
2026-05-01 12:25 51.36250 45.89374 38126 ft 418 kts 208°
2026-05-01 12:26 51.30981 45.85373 38137 ft 417 kts 208°
2026-05-01 12:26 51.23150 45.79451 38139 ft 416 kts 208°
2026-05-01 12:27 51.15274 45.73517 38126 ft 416 kts 208°
2026-05-01 12:28 51.07456 45.67673 38131 ft 416 kts 208°
2026-05-01 12:29 50.99241 45.63014 38125 ft 421 kts 197°
2026-05-01 12:29 50.90698 45.59951 38118 ft 421 kts 197°
2026-05-01 12:30 50.82106 45.56895 38132 ft 421 kts 197°
2026-05-01 12:31 50.76400 45.54857 38138 ft 421 kts 197°
2026-05-01 12:31 50.70691 45.52846 38141 ft 421 kts 197°
2026-05-01 12:32 50.64985 45.50861 38145 ft 421 kts 197°
2026-05-01 12:32 50.56368 45.47884 38150 ft 421 kts 196°
2026-05-01 12:33 50.50689 45.45926 38136 ft 420 kts 197°
2026-05-01 12:33 50.44983 45.43960 38148 ft 420 kts 197°
2026-05-01 12:34 50.39280 45.41992 38150 ft 419 kts 197°
2026-05-01 12:34 50.33584 45.40030 38151 ft 419 kts 197°
2026-05-01 12:35 50.27888 45.38075 37902 ft 418 kts 197°
2026-05-01 12:35 50.25025 45.37095 36476 ft 426 kts 198°
2026-05-01 12:35 50.22103 45.36091 35301 ft 430 kts 198°
2026-05-01 12:36 50.19200 45.35102 34497 ft 424 kts 199°
2026-05-01 12:36 50.16343 45.34135 33748 ft 418 kts 200°
2026-05-01 12:36 50.13538 45.33195 33246 ft 405 kts 200°
2026-05-01 12:36 50.10822 45.32289 32634 ft 394 kts 201°
2026-05-01 12:37 50.08180 45.31408 31949 ft 382 kts 202°
2026-05-01 12:37 50.05636 45.30565 31589 ft 364 kts 202°
2026-05-01 12:37 50.03221 45.29766 31327 ft 350 kts 203°
2026-05-01 12:37 50.00868 45.28946 30912 ft 342 kts 205°
2026-05-01 12:38 49.98596 45.28007 30513 ft 334 kts 207°
2026-05-01 12:38 49.96382 45.27002 30085 ft 328 kts 208°
2026-05-01 12:38 49.94942 45.26329 29800 ft 324 kts 209°
2026-05-01 12:38 49.92806 45.25334 29428 ft 317 kts 208°
2026-05-01 12:39 49.90036 45.24067 28938 ft 310 kts 208°
2026-05-01 12:39 49.87983 45.23146 28567 ft 304 kts 208°
2026-05-01 12:39 49.85967 45.22254 28241 ft 299 kts 208°
2026-05-01 12:39 49.83983 45.21385 27907 ft 294 kts 208°
2026-05-01 12:40 49.82660 45.20805 27682 ft 291 kts 208°
2026-05-01 12:40 49.80733 45.19960 27343 ft 286 kts 208°
2026-05-01 12:40 49.78835 45.19126 27007 ft 281 kts 208°
2026-05-01 12:40 49.76977 45.18312 26647 ft 275 kts 208°
2026-05-01 12:41 49.75138 45.17503 26338 ft 274 kts 208°
2026-05-01 12:41 49.73332 45.16704 26018 ft 273 kts 208°
2026-05-01 12:41 49.71512 45.15904 25674 ft 272 kts 208°
2026-05-01 12:41 49.69698 45.15109 25326 ft 270 kts 208°
2026-05-01 12:42 49.67941 45.14195 24987 ft 261 kts 215°
2026-05-01 12:42 49.66399 45.12823 24650 ft 252 kts 224°
2026-05-01 12:42 49.65095 45.11070 24324 ft 247 kts 230°
2026-05-01 12:42 49.63862 45.09223 24007 ft 247 kts 229°
2026-05-01 12:43 49.62624 45.07384 23664 ft 246 kts 229°
2026-05-01 12:43 49.61389 45.05555 23299 ft 246 kts 229°
2026-05-01 12:43 49.60157 45.03729 22969 ft 246 kts 229°
2026-05-01 12:43 49.58928 45.01904 22646 ft 246 kts 229°
2026-05-01 12:44 49.57695 45.00073 22323 ft 246 kts 229°
2026-05-01 12:44 49.56468 44.98253 22007 ft 246 kts 228°
2026-05-01 12:44 49.53988 44.94581 21372 ft 246 kts 228°
2026-05-01 12:45 49.51524 44.90934 20745 ft 246 kts 228°
2026-05-01 12:45 49.50291 44.89111 20431 ft 246 kts 227°
2026-05-01 12:45 49.49054 44.87278 20115 ft 247 kts 227°
2026-05-01 12:46 49.47822 44.85453 19796 ft 247 kts 227°
2026-05-01 12:46 49.46581 44.83616 19492 ft 247 kts 227°
2026-05-01 12:46 49.45331 44.81770 19178 ft 248 kts 227°
2026-05-01 12:46 49.44099 44.79954 18870 ft 248 kts 227°
2026-05-01 12:47 49.42845 44.78104 18552 ft 248 kts 227°
2026-05-01 12:47 49.41610 44.76287 18229 ft 248 kts 226°
2026-05-01 12:47 49.40348 44.74434 17890 ft 249 kts 226°
2026-05-01 12:47 49.39097 44.72604 17581 ft 249 kts 226°
2026-05-01 12:48 49.37845 44.70771 17274 ft 249 kts 226°
2026-05-01 12:48 49.36595 44.68940 16966 ft 249 kts 226°
2026-05-01 12:48 49.35347 44.67113 16665 ft 249 kts 226°
2026-05-01 12:48 49.34097 44.65287 16367 ft 249 kts 226°
2026-05-01 12:49 49.32838 44.63446 16058 ft 249 kts 226°
2026-05-01 12:49 49.31582 44.61607 15753 ft 249 kts 226°
2026-05-01 12:49 49.30325 44.59769 15459 ft 250 kts 226°
2026-05-01 12:49 49.29079 44.57948 15165 ft 250 kts 226°
2026-05-01 12:50 49.27809 44.56092 14863 ft 250 kts 226°
2026-05-01 12:50 49.26559 44.54268 14567 ft 250 kts 226°
2026-05-01 12:50 49.25298 44.52429 14262 ft 251 kts 226°
2026-05-01 12:50 49.24039 44.50598 13961 ft 251 kts 226°
2026-05-01 12:51 49.22761 44.48740 13625 ft 251 kts 226°
2026-05-01 12:51 49.21493 44.46896 13314 ft 251 kts 226°
2026-05-01 12:51 49.18974 44.43239 12710 ft 251 kts 226°
2026-05-01 12:52 49.17709 44.41404 12388 ft 251 kts 226°
2026-05-01 12:52 49.15176 44.37731 11759 ft 251 kts 226°
2026-05-01 12:52 49.13909 44.35895 11436 ft 251 kts 225°
2026-05-01 12:53 49.11373 44.32224 10777 ft 251 kts 225°
2026-05-01 12:53 49.10101 44.30390 10456 ft 251 kts 225°
2026-05-01 12:53 49.08848 44.28587 10129 ft 251 kts 225°
2026-05-01 12:54 49.07562 44.26737 9763 ft 251 kts 225°
2026-05-01 12:54 49.05028 44.23101 9072 ft 249 kts 223°
2026-05-01 12:54 49.03611 44.21643 8724 ft 251 kts 208°
2026-05-01 12:55 49.00448 44.19398 7890 ft 252 kts 207°
2026-05-01 12:55 48.98856 44.18262 7483 ft 253 kts 207°
2026-05-01 12:55 48.97265 44.17126 7099 ft 252 kts 206°
2026-05-01 12:56 48.95681 44.15995 6720 ft 251 kts 207°
2026-05-01 12:56 48.94103 44.14869 6320 ft 250 kts 207°
2026-05-01 12:56 48.92536 44.13753 5924 ft 248 kts 207°
2026-05-01 12:56 48.90977 44.12649 5542 ft 246 kts 206°
2026-05-01 12:57 48.89428 44.11554 5158 ft 245 kts 207°
2026-05-01 12:57 48.86335 44.09408 4346 ft 244 kts 205°
2026-05-01 12:57 48.84783 44.08383 3939 ft 243 kts 204°
2026-05-01 12:58 48.83230 44.07365 3526 ft 243 kts 205°
2026-05-01 12:58 48.81607 44.06633 3104 ft 245 kts 185°
2026-05-01 12:58 48.79970 44.06979 2860 ft 232 kts 160°
2026-05-01 12:59 48.77630 44.10040 2434 ft 218 kts 128°
2026-05-01 12:59 48.76692 44.11808 2267 ft 212 kts 128°
2026-05-01 12:59 48.74899 44.15167 2030 ft 199 kts 128°
2026-05-01 13:00 48.73849 44.18793 2035 ft 178 kts 92°
2026-05-01 13:00 48.73963 44.20573 1962 ft 163 kts 73°
2026-05-01 13:01 48.74826 44.23518 1678 ft 146 kts 61°
2026-05-01 13:01 48.75257 44.24871 1478 ft 138 kts 62°
2026-05-01 13:01 48.75952 44.27049 1153 ft 134 kts 62°
2026-05-01 13:02 48.76323 44.28213 986 ft 134 kts 60°
2026-05-01 13:07 48.67958 44.30108 3010 ft 205 kts 240°
2026-05-01 13:07 48.67198 44.28283 3012 ft 205 kts 240°
2026-05-01 13:07 48.66446 44.26456 2981 ft 203 kts 240°
2026-05-01 13:08 48.65858 44.24549 2660 ft 199 kts 263°
2026-05-01 13:08 48.66121 44.22556 2608 ft 197 kts 302°
2026-05-01 13:08 48.67125 44.21166 2626 ft 198 kts 327°
2026-05-01 13:08 48.68312 44.20093 2614 ft 200 kts 329°
2026-05-01 13:09 48.69517 44.19046 2610 ft 197 kts 330°
2026-05-01 13:09 48.70659 44.18061 2602 ft 180 kts 330°
2026-05-01 13:09 48.71751 44.17327 2590 ft 168 kts 351°
2026-05-01 13:09 48.72877 44.17615 2598 ft 166 kts 22°
2026-05-01 13:10 48.73676 44.18792 2608 ft 163 kts 60°
2026-05-01 13:10 48.74064 44.20447 2185 ft 173 kts 78°
2026-05-01 13:10 48.74388 44.22127 1995 ft 160 kts 64°
2026-05-01 13:10 48.74849 44.23584 1673 ft 153 kts 62°
2026-05-01 13:11 48.75292 44.25004 1381 ft 147 kts 63°
2026-05-01 13:11 48.75718 44.26394 1179 ft 145 kts 62°
2026-05-01 13:11 48.76167 44.27751 993 ft 143 kts 62°
2026-05-01 13:11 48.76606 44.29102 844 ft 143 kts 61°
2026-05-01 13:12 48.77030 44.30443 630 ft 139 kts 62°
2026-05-01 13:12 48.77454 44.31752 454 ft 137 kts 63°
2026-05-01 13:12 48.77820 44.32911 443 ft 105 kts 63°
2026-05-01 13:12 48.78077 44.33724 466 ft 67 kts 64°
2026-05-01 13:13 48.78236 44.34221 474 ft 44 kts 65°
2026-05-01 13:13 48.78352 44.34591 476 ft 37 kts 64°
2026-05-01 13:13 48.78458 44.34924 476 ft 33 kts 64°
2026-05-01 13:13 48.78548 44.35204 479 ft 16 kts 63°
2026-05-01 13:14 48.78637 44.35235 482 ft 16 kts 339°
2026-05-01 13:14 48.78748 44.35179 483 ft 18 kts 341°
2026-05-01 13:14 48.78857 44.35123 482 ft 16 kts 341°
2026-05-01 13:14 48.78920 44.35123 486 ft 7 kts 38°
2026-05-01 13:15 48.78968 44.35123 482 ft 5 kts 339°
2026-05-01 13:15 48.78979 44.35116 484 ft 1 kts 338°
2026-05-01 13:15 48.78984 44.35113 482 ft 0 kts 339°
2026-05-01 13:15 48.78985 44.35113 482 ft 0 kts 339°